NE1CU Weather Reports


Display with metric or nautical units.
time (UTC)temp
F
wind
direction
speed
MPH
gust
MPH
rain 1hr
in
rain 24hr
in
rain mn
in
humidity
%
barometer
mb
20260504160118 67 183 2.0 3.0 0.00 0.00 0.00 34 1011.6
20260504151045 65 200 3.0 4.0 0.00 0.00 0.00 37 1012.2
20260504150542 64 178 4.0 6.0 0.00 0.00 0.00 36 1012.3
20260504141008 62 118 1.0 1.0 0.00 0.00 0.00 42 1012.6
20260504140505 63 185 3.0 4.0 0.00 0.00 0.00 42 1012.5
20260504130429 60 159 3.0 4.0 0.00 0.00 0.00 42 1013.0
20260504110317 42 35 0.0 0.0 0.00 0.00 0.00 79 1013.4
20260504100234 37 14 0.0 0.0 0.00 0.00 0.00 86 1013.0
20260504081628 37 3 0.0 0.0 0.00 0.00 0.00 83 1012.5
20260504081123 38 3 0.0 0.0 0.00 0.00 0.00 82 1012.4
20260504080620 38 3 0.0 0.0 0.00 0.00 0.00 83 1012.4
20260504080117 38 3 0.0 0.0 0.00 0.00 0.00 83 1012.5
20260504050433 40 3 0.0 0.0 0.00 0.00 0.00 76 1012.0
20260504045930 40 3 0.0 0.0 0.00 0.00 0.00 76 1011.8
20260504045426 40 3 0.0 0.0 0.00 0.00 0.00 74 1011.9
20260504044922 40 3 0.0 0.0 0.00 0.00 0.00 74 1011.9
20260504044420 40 3 0.0 0.0 0.00 0.00 0.00 73 1011.8
20260504043917 40 3 0.0 0.0 0.00 0.00 0.00 72 1011.8
20260504043414 40 3 0.0 0.0 0.00 0.00 0.00 72 1011.9
20260504042911 41 3 0.0 0.0 0.00 0.00 0.00 71 1011.8
20260504042408 41 3 0.0 0.0 0.00 0.00 0.00 69 1012.0
20260504041904 41 3 0.0 0.0 0.00 0.00 0.00 69 1011.8
20260504041400 42 3 0.0 0.0 0.00 0.00 0.00 69 1011.8
20260504040856 42 3 0.0 0.0 0.00 0.00 0.00 68 1011.8
20260504040354 42 3 0.0 0.0 0.00 0.00 0.00 68 1011.9
20260504035850 42 3 0.0 0.0 0.00 0.00 0.00 66 1012.0
20260504035348 42 3 0.0 0.0 0.00 0.00 0.00 66 1011.9
20260504034844 42 3 0.0 0.0 0.00 0.00 0.00 66 1011.7
20260504034342 42 3 0.0 0.0 0.00 0.00 0.00 66 1011.7
20260504033839 42 3 0.0 0.0 0.00 0.00 0.00 66 1011.9
20260504033337 42 3 0.0 0.0 0.00 0.00 0.00 65 1011.6
20260504032833 43 3 0.0 0.0 0.00 0.00 0.00 65 1011.5
20260504032330 43 3 0.0 0.0 0.00 0.00 0.00 63 1011.6
20260504031827 43 3 0.0 0.0 0.00 0.00 0.00 63 1011.6
20260504031324 43 3 0.0 0.0 0.00 0.00 0.00 63 1011.5
20260504030820 44 3 0.0 0.0 0.00 0.00 0.00 62 1011.5
20260504030318 43 3 0.0 0.0 0.00 0.00 0.00 62 1011.8
20260504025814 43 3 0.0 0.0 0.00 0.00 0.00 62 1011.7
20260504025311 44 3 0.0 0.0 0.00 0.00 0.00 61 1011.7
20260504024808 44 3 0.0 0.0 0.00 0.00 0.00 61 1011.7
20260504024304 45 3 0.0 0.0 0.00 0.00 0.00 59 1011.6
20260504023801 45 3 0.0 0.0 0.00 0.00 0.00 59 1011.7
20260504023257 45 3 0.0 0.0 0.00 0.00 0.00 59 1011.7
20260504022753 45 3 0.0 0.0 0.00 0.00 0.00 58 1011.7
20260504022250 45 3 0.0 0.0 0.00 0.00 0.00 57 1011.7
20260504021747 45 3 0.0 0.0 0.00 0.00 0.00 57 1011.7
20260504021244 45 3 0.0 0.0 0.00 0.00 0.00 57 1011.6
20260504020741 46 3 0.0 0.0 0.00 0.00 0.00 57 1011.5
20260504020237 46 3 0.0 0.0 0.00 0.00 0.00 56 1011.5
20260504015734 46 3 0.0 0.0 0.00 0.00 0.00 56 1011.8
20260504015230 47 3 0.0 0.0 0.00 0.00 0.00 55 1011.5
20260504014726 47 3 0.0 0.0 0.00 0.00 0.00 54 1011.4
20260504014223 47 3 0.0 0.0 0.00 0.00 0.00 52 1011.6
20260504013721 48 3 0.0 0.0 0.00 0.00 0.00 52 1011.5
20260504013218 48 3 0.0 0.0 0.00 0.00 0.00 52 1011.3
20260504012714 48 3 0.0 0.0 0.00 0.00 0.00 51 1011.3
20260504012213 49 3 0.0 0.0 0.00 0.00 0.00 50 1011.3
20260504011709 49 3 0.0 0.0 0.00 0.00 0.00 50 1011.2
20260504011206 49 3 0.0 0.0 0.00 0.00 0.00 49 1011.1
20260504010702 50 3 0.0 0.0 0.00 0.00 0.00 45 1011.2
20260504010157 50 3 0.0 0.0 0.00 0.00 0.00 47 1011.2
20260504005654 50 3 0.0 0.0 0.00 0.00 0.00 46 1010.9
20260504005151 51 3 0.0 0.0 0.00 0.00 0.00 45 1010.9
20260504004649 51 3 0.0 0.0 0.00 0.00 0.00 44 1010.8
20260504004146 52 3 0.0 0.0 0.00 0.00 0.00 43 1010.7
20260504003642 52 3 0.0 0.0 0.00 0.00 0.00 43 1010.7
20260504003139 52 3 0.0 0.0 0.00 0.00 0.00 40 1010.6
20260504002636 52 3 0.0 0.0 0.00 0.00 0.00 40 1010.4
20260504002134 52 3 0.0 0.0 0.00 0.00 0.00 39 1010.5
20260504001631 52 3 0.0 0.0 0.00 0.00 0.00 40 1010.5
20260504001127 52 3 0.0 0.0 0.00 0.00 0.00 38 1010.4
20260504000625 52 3 0.0 0.0 0.00 0.00 0.00 38 1010.3
20260504000122 53 3 0.0 0.0 0.00 0.00 0.00 41 1010.2
20260503235620 53 3 0.0 0.0 0.00 0.00 0.00 37 1010.2
20260503235116 53 3 0.0 0.0 0.00 0.00 0.00 36 1010.1
20260503234614 54 3 0.0 0.0 0.00 0.00 0.00 34 1010.0
20260503234112 54 3 0.0 0.0 0.00 0.00 0.00 33 1009.8
20260503233609 55 3 0.0 0.0 0.00 0.00 0.00 33 1009.8
20260503233104 56 14 0.0 0.0 0.00 0.00 0.00 31 1009.9
20260503232601 57 13 0.0 0.0 0.00 0.00 0.00 29 1009.7
20260503232059 57 8 0.0 0.0 0.00 0.00 0.00 29 1009.5
20260503231556 57 313 2.0 3.0 0.00 0.00 0.00 26 1009.6
20260503231053 57 110 3.0 4.0 0.00 0.00 0.00 26 1009.6
20260503230549 58 0 0.0 0.0 0.00 0.00 0.00 27 1009.4
20260503230047 58 30 2.0 2.0 0.00 0.00 0.00 26 1009.6
20260503225544 58 29 1.0 1.0 0.00 0.00 0.00 27 1009.4
20260503225039 58 327 2.0 2.0 0.00 0.00 0.00 26 1009.4
20260503224537 58 65 1.0 1.0 0.00 0.00 0.00 28 1009.4
20260503224034 58 203 1.0 2.0 0.00 0.00 0.00 28 1009.4
20260503223532 59 102 2.0 2.0 0.00 0.00 0.00 26 1009.4
20260503223027 59 321 1.0 1.0 0.00 0.00 0.00 27 1009.5
20260503222526 59 352 2.0 2.0 0.00 0.00 0.00 27 1009.4
20260503222023 59 213 2.0 2.0 0.00 0.00 0.00 27 1009.3
20260503221522 59 143 2.0 4.0 0.00 0.00 0.00 27 1009.2
20260503221019 59 242 3.0 4.0 0.00 0.00 0.00 27 1009.3
20260503220515 59 15 2.0 3.0 0.00 0.00 0.00 27 1009.3
20260503220012 59 301 1.0 1.0 0.00 0.00 0.00 27 1009.3
20260503215509 59 101 1.0 1.0 0.00 0.00 0.00 29 1009.3
20260503215006 59 266 2.0 2.0 0.00 0.00 0.00 27 1009.3
20260503214504 59 331 4.0 6.0 0.00 0.00 0.00 26 1009.4
20260503214000 59 312 2.0 2.0 0.00 0.00 0.00 28 1009.4
20260503213459 59 21 2.0 3.0 0.00 0.00 0.00 28 1009.3
20260503212955 59 345 3.0 3.0 0.00 0.00 0.00 27 1009.3
20260503212452 60 324 1.0 1.0 0.00 0.00 0.00 27 1009.3
20260503211950 61 11 2.0 3.0 0.00 0.00 0.00 27 1009.2
20260503211447 60 142 2.0 4.0 0.00 0.00 0.00 27 1009.3
20260503210942 60 74 5.0 7.0 0.00 0.00 0.00 27 1009.2
20260503210439 60 22 3.0 4.0 0.00 0.00 0.00 28 1009.2
20260503205933 60 3 3.0 4.0 0.00 0.00 0.00 27 1009.2
20260503205431 59 337 2.0 3.0 0.00 0.00 0.00 28 1009.2
20260503204927 59 303 2.0 3.0 0.00 0.00 0.00 28 1009.2
20260503204425 59 52 1.0 1.0 0.00 0.00 0.00 31 1009.4
20260503203921 59 278 5.0 7.0 0.00 0.00 0.00 28 1009.3
20260503203419 60 339 4.0 6.0 0.00 0.00 0.00 28 1009.1
20260503202915 59 264 5.0 7.0 0.00 0.00 0.00 29 1009.1
20260503202414 60 226 4.0 6.0 0.00 0.00 0.00 28 1009.3
20260503201912 59 339 1.0 1.0 0.00 0.00 0.00 31 1009.2
20260503201408 59 45 5.0 7.0 0.00 0.00 0.00 28 1009.2
20260503200906 60 226 3.0 4.0 0.00 0.00 0.00 28 1009.3
20260503200402 60 20 3.0 6.0 0.00 0.00 0.00 29 1009.4
20260503195859 59 190 3.0 3.0 0.00 0.00 0.00 32 1009.3
20260503195355 59 287 4.0 7.0 0.00 0.00 0.00 28 1009.3
20260503194853 59 267 4.0 4.0 0.00 0.00 0.00 29 1009.2
20260503194349 58 72 2.0 3.0 0.00 0.00 0.00 30 1009.5
20260503193845 59 230 5.0 6.0 0.00 0.00 0.00 30 1009.6
20260503193341 58 322 4.0 6.0 0.00 0.00 0.00 30 1009.6
20260503192837 58 126 6.0 10.0 0.00 0.00 0.00 30 1009.6
20260503192333 56 38 2.0 3.0 0.00 0.00 0.00 32 1009.5
20260503191830 57 12 4.0 7.0 0.00 0.00 0.00 31 1009.6
20260503191327 57 210 4.0 4.0 0.00 0.00 0.00 31 1009.6
20260503190824 58 325 2.0 4.0 0.00 0.00 0.00 30 1009.6
20260503190321 59 249 6.0 8.0 0.00 0.00 0.00 29 1009.5
20260503185818 58 220 3.0 4.0 0.00 0.00 0.00 31 1009.4
20260503185314 57 63 3.0 4.0 0.00 0.00 0.00 34 1009.4
20260503184813 58 263 5.0 8.0 0.00 0.00 0.00 31 1009.7
20260503184310 56 333 4.0 6.0 0.00 0.00 0.00 32 1009.4
20260503183806 57 351 4.0 4.0 0.00 0.00 0.00 30 1009.5
20260503183303 56 238 2.0 2.0 0.00 0.00 0.00 31 1009.5
20260503182800 57 38 2.0 3.0 0.00 0.00 0.00 30 1009.3
20260503182300 57 37 3.0 4.0 0.00 0.00 0.00 32 1009.4
20260503181756 57 258 2.0 3.0 0.00 0.00 0.00 30 1009.4
20260503181253 57 271 6.0 9.0 0.00 0.00 0.00 28 1009.4
20260503180749 57 7 2.0 3.0 0.00 0.00 0.00 32 1009.4
20260503180248 59 212 5.0 7.0 0.00 0.00 0.00 28 1009.2
20260503175743 57 70 2.0 3.0 0.00 0.00 0.00 31 1009.1
20260503175242 56 352 4.0 6.0 0.00 0.00 0.00 30 1009.3
20260503174737 56 327 5.0 8.0 0.00 0.00 0.00 28 1009.3
20260503174236 56 318 1.0 1.0 0.00 0.00 0.00 31 1009.6
20260503173736 56 143 2.0 2.0 0.00 0.00 0.00 31 1009.6
20260503173232 57 298 1.0 1.0 0.00 0.00 0.00 30 1009.5
20260503172729 57 205 4.0 4.0 0.00 0.00 0.00 32 1009.5
20260503172226 57 265 2.0 3.0 0.00 0.00 0.00 32 1009.5
20260503171723 56 38 1.0 1.0 0.00 0.00 0.00 33 1009.8
20260503171220 55 232 3.0 4.0 0.00 0.00 0.00 34 1009.9
20260503170717 54 160 3.0 4.0 0.00 0.00 0.00 36 1009.9
20260503170214 54 133 3.0 4.0 0.00 0.00 0.00 36 1009.8